PIMOHWEATHER Station Historical Data
Daily Summary for February 05, 2020 Units:  Metric    English   Both
Daily Weekly Monthly Yearly
  High: Low: Average:
Temperature: 31.0 °C 23.0 °C 27.1 °C
Dew Point: 23.0 °C 19.0 °C 21.5 °C
Humidity: 82% 60% 72%
Wind Speed: 32km/h 0km/h 11.6km/h
Wind Gust: 40km/h - -
Wind- - East
Pressure: 1015.0 hPa 1009.8 hPa -
Precipitation: 0.00 mm    
 
 
Tabular Data for February 05, 2020
Time Temperature Dew Point Pressure Wind Wind Speed Wind Gust Humidity Rainfall Rate (Hourly) solar
00:04 26.0 °C 21.0 °C 1013.7 hPa NNE 13 km/h 16 km/h 74% 0.00 mm 0.00 W/m2
00:09 26.0 °C 21.0 °C 1013.7 hPa NNE 10 km/h 16 km/h 74% 0.00 mm 0.00 W/m2
00:14 26.0 °C 21.0 °C 1013.7 hPa NNE 8 km/h 8 km/h 74% 0.00 mm 0.00 W/m2
00:19 26.0 °C 21.0 °C 1013.7 hPa NNE 9 km/h 12 km/h 75% 0.00 mm 0.00 W/m2
00:24 26.0 °C 21.0 °C 1013.7 hPa NNE 6 km/h 8 km/h 75% 0.00 mm 0.00 W/m2
00:29 26.0 °C 21.0 °C 1013.7 hPa NNE 10 km/h 12 km/h 75% 0.00 mm 0.00 W/m2
00:34 25.0 °C 21.0 °C 1013.7 hPa NNE 6 km/h 12 km/h 75% 0.00 mm 0.00 W/m2
00:39 25.0 °C 21.0 °C 1013.7 hPa NNE 8 km/h 8 km/h 75% 0.00 mm 0.00 W/m2
00:44 25.0 °C 21.0 °C 1013.6 hPa NNE 6 km/h 8 km/h 75% 0.00 mm 0.00 W/m2
00:49 25.0 °C 21.0 °C 1013.3 hPa North 4 km/h 4 km/h 76% 0.00 mm 0.00 W/m2
00:54 25.0 °C 21.0 °C 1013.3 hPa North 6 km/h 8 km/h 76% 0.00 mm 0.00 W/m2
00:59 25.0 °C 21.0 °C 1013.3 hPa NNE 8 km/h 12 km/h 76% 0.00 mm 0.00 W/m2
01:04 25.0 °C 21.0 °C 1013.3 hPa North 10 km/h 16 km/h 77% 0.00 mm 0.00 W/m2
01:09 25.0 °C 21.0 °C 1013.3 hPa North 10 km/h 16 km/h 77% 0.00 mm 0.00 W/m2
01:14 25.0 °C 21.0 °C 1013.3 hPa North 9 km/h 16 km/h 77% 0.00 mm 0.00 W/m2
01:19 25.0 °C 21.0 °C 1013.2 hPa North 8 km/h 12 km/h 77% 0.00 mm 0.00 W/m2
01:24 25.0 °C 21.0 °C 1013.2 hPa North 6 km/h 8 km/h 78% 0.00 mm 0.00 W/m2
01:29 25.0 °C 21.0 °C 1013.0 hPa North 11 km/h 12 km/h 78% 0.00 mm 0.00 W/m2
01:34 25.0 °C 21.0 °C 1013.0 hPa North 10 km/h 12 km/h 78% 0.00 mm 0.00 W/m2
01:39 25.0 °C 21.0 °C 1013.0 hPa NNE 10 km/h 12 km/h 79% 0.00 mm 0.00 W/m2
01:44 25.0 °C 21.0 °C 1012.7 hPa North 8 km/h 12 km/h 79% 0.00 mm 0.00 W/m2
01:49 25.0 °C 21.0 °C 1012.8 hPa North 6 km/h 12 km/h 79% 0.00 mm 0.00 W/m2
01:54 25.0 °C 21.0 °C 1012.9 hPa North 10 km/h 12 km/h 79% 0.00 mm 0.00 W/m2
01:59 25.0 °C 21.0 °C 1012.7 hPa NNW 8 km/h 8 km/h 79% 0.00 mm 0.00 W/m2
02:04 24.0 °C 21.0 °C 1012.7 hPa North 10 km/h 16 km/h 79% 0.00 mm 0.00 W/m2
02:09 24.0 °C 21.0 °C 1012.7 hPa NNE 6 km/h 8 km/h 79% 0.00 mm 0.00 W/m2
02:14 24.0 °C 21.0 °C 1012.7 hPa NNE 6 km/h 8 km/h 79% 0.00 mm 0.00 W/m2
02:19 24.0 °C 20.0 °C 1012.7 hPa North 12 km/h 16 km/h 79% 0.00 mm 0.00 W/m2
02:24 24.0 °C 20.0 °C 1012.7 hPa North 6 km/h 8 km/h 78% 0.00 mm 0.00 W/m2
02:29 24.0 °C 20.0 °C 1012.7 hPa North 8 km/h 12 km/h 78% 0.00 mm 0.00 W/m2
02:34 24.0 °C 20.0 °C 1012.7 hPa NE 8 km/h 12 km/h 78% 0.00 mm 0.00 W/m2
02:39 24.0 °C 20.0 °C 1012.7 hPa NNE 6 km/h 8 km/h 78% 0.00 mm 0.00 W/m2
02:44 24.0 °C 20.0 °C 1012.7 hPa NNE 4 km/h 4 km/h 78% 0.00 mm 0.00 W/m2
02:49 24.0 °C 20.0 °C 1012.7 hPa NNE 11 km/h 12 km/h 78% 0.00 mm 0.00 W/m2
02:54 24.0 °C 20.0 °C 1012.7 hPa NNE 6 km/h 8 km/h 78% 0.00 mm 0.00 W/m2
02:59 24.0 °C 20.0 °C 1012.7 hPa North 5 km/h 8 km/h 78% 0.00 mm 0.00 W/m2
03:04 24.0 °C 20.0 °C 1012.7 hPa North 10 km/h 12 km/h 78% 0.00 mm 0.00 W/m2
03:09 24.0 °C 20.0 °C 1012.7 hPa North 10 km/h 12 km/h 78% 0.00 mm 0.00 W/m2
03:14 24.0 °C 20.0 °C 1012.7 hPa NNE 10 km/h 12 km/h 78% 0.00 mm 0.00 W/m2
03:19 24.0 °C 20.0 °C 1012.7 hPa North 8 km/h 8 km/h 78% 0.00 mm 0.00 W/m2
03:24 24.0 °C 20.0 °C 1012.7 hPa NNE 9 km/h 12 km/h 78% 0.00 mm 0.00 W/m2
03:29 24.0 °C 20.0 °C 1012.7 hPa North 10 km/h 12 km/h 78% 0.00 mm 0.00 W/m2
03:34 24.0 °C 20.0 °C 1012.7 hPa North 12 km/h 16 km/h 79% 0.00 mm 0.00 W/m2
03:39 24.0 °C 20.0 °C 1012.7 hPa NNE 12 km/h 16 km/h 79% 0.00 mm 0.00 W/m2
03:44 24.0 °C 20.0 °C 1012.7 hPa North 12 km/h 16 km/h 79% 0.00 mm 0.00 W/m2
03:49 24.0 °C 20.0 °C 1012.7 hPa North 10 km/h 12 km/h 80% 0.00 mm 0.00 W/m2
03:54 24.0 °C 20.0 °C 1012.7 hPa NNE 9 km/h 12 km/h 80% 0.00 mm 0.00 W/m2
03:59 23.0 °C 20.0 °C 1012.7 hPa North 10 km/h 12 km/h 80% 0.00 mm 0.00 W/m2
04:04 23.0 °C 20.0 °C 1012.7 hPa North 13 km/h 16 km/h 80% 0.00 mm 0.00 W/m2
04:09 23.0 °C 20.0 °C 1012.7 hPa North 11 km/h 12 km/h 80% 0.00 mm 0.00 W/m2
04:14 23.0 °C 20.0 °C 1012.7 hPa North 10 km/h 12 km/h 80% 0.00 mm 0.00 W/m2
04:19 23.0 °C 20.0 °C 1012.7 hPa North 10 km/h 12 km/h 81% 0.00 mm 0.00 W/m2
04:24 23.0 °C 20.0 °C 1012.7 hPa North 12 km/h 12 km/h 81% 0.00 mm 0.00 W/m2
04:29 23.0 °C 20.0 °C 1012.7 hPa North 13 km/h 16 km/h 81% 0.00 mm 0.00 W/m2
04:34 23.0 °C 20.0 °C 1012.7 hPa North 12 km/h 12 km/h 81% 0.00 mm 0.00 W/m2
04:39 23.0 °C 20.0 °C 1012.7 hPa North 12 km/h 16 km/h 81% 0.00 mm 0.00 W/m2
04:44 23.0 °C 20.0 °C 1012.7 hPa North 6 km/h 12 km/h 81% 0.00 mm 0.00 W/m2
04:49 23.0 °C 20.0 °C 1012.7 hPa NNE 10 km/h 12 km/h 81% 0.00 mm 0.00 W/m2
04:54 23.0 °C 20.0 °C 1012.7 hPa North 9 km/h 12 km/h 81% 0.00 mm 0.00 W/m2
04:59 23.0 °C 20.0 °C 1012.7 hPa North 10 km/h 12 km/h 81% 0.00 mm 0.00 W/m2
05:04 23.0 °C 20.0 °C 1013.0 hPa North 10 km/h 16 km/h 81% 0.00 mm 0.00 W/m2
05:09 23.0 °C 19.0 °C 1013.0 hPa North 9 km/h 12 km/h 81% 0.00 mm 0.00 W/m2
05:14 23.0 °C 20.0 °C 1013.0 hPa NNE 13 km/h 16 km/h 82% 0.00 mm 0.00 W/m2
05:19 23.0 °C 20.0 °C 1013.0 hPa NNE 10 km/h 12 km/h 82% 0.00 mm 0.00 W/m2
05:24 23.0 °C 20.0 °C 1013.0 hPa NNE 7 km/h 8 km/h 82% 0.00 mm 0.00 W/m2
05:29 23.0 °C 20.0 °C 1013.0 hPa NNE 8 km/h 12 km/h 82% 0.00 mm 0.00 W/m2
05:34 23.0 °C 20.0 °C 1013.2 hPa NNE 5 km/h 8 km/h 82% 0.00 mm 0.00 W/m2
05:39 23.0 °C 20.0 °C 1013.4 hPa North 9 km/h 12 km/h 82% 0.00 mm 0.00 W/m2
05:44 23.0 °C 20.0 °C 1013.2 hPa North 10 km/h 12 km/h 82% 0.00 mm 0.00 W/m2
05:49 23.0 °C 20.0 °C 1013.4 hPa North 6 km/h 8 km/h 82% 0.00 mm 0.00 W/m2
05:54 23.0 °C 20.0 °C 1013.4 hPa North 6 km/h 8 km/h 82% 0.00 mm 0.00 W/m2
05:59 23.0 °C 20.0 °C 1013.4 hPa North 12 km/h 12 km/h 82% 0.00 mm 0.00 W/m2
06:04 23.0 °C 19.0 °C 1013.4 hPa NNE 18 km/h 20 km/h 81% 0.00 mm 0.00 W/m2
06:09 23.0 °C 20.0 °C 1013.4 hPa North 16 km/h 20 km/h 82% 0.00 mm 0.00 W/m2
06:14 23.0 °C 20.0 °C 1013.6 hPa North 9 km/h 12 km/h 82% 0.00 mm 0.00 W/m2
06:19 23.0 °C 20.0 °C 1013.6 hPa North 11 km/h 12 km/h 82% 0.00 mm 0.00 W/m2
06:24 23.0 °C 20.0 °C 1013.7 hPa North 14 km/h 16 km/h 82% 0.00 mm 0.07 W/m2
06:29 23.0 °C 20.0 °C 1013.7 hPa North 12 km/h 16 km/h 82% 0.00 mm 4.05 W/m2
06:34 23.0 °C 19.0 °C 1013.4 hPa North 10 km/h 12 km/h 82% 0.00 mm 8.28 W/m2
06:39 23.0 °C 19.0 °C 1013.7 hPa North 14 km/h 16 km/h 82% 0.00 mm 13.21 W/m2
06:44 23.0 °C 19.0 °C 1013.7 hPa North 11 km/h 12 km/h 81% 0.00 mm 21.45 W/m2
06:49 23.0 °C 19.0 °C 1013.7 hPa North 9 km/h 12 km/h 81% 0.00 mm 28.31 W/m2
06:54 23.0 °C 19.0 °C 1013.7 hPa North 12 km/h 16 km/h 80% 0.00 mm 34.45 W/m2
06:59 23.0 °C 19.0 °C 1013.7 hPa North 10 km/h 12 km/h 80% 0.00 mm 37.04 W/m2
07:04 23.0 °C 19.0 °C 1014.1 hPa North 14 km/h 16 km/h 79% 0.00 mm 42.86 W/m2
07:09 23.0 °C 19.0 °C 1014.1 hPa NNE 12 km/h 16 km/h 79% 0.00 mm 47.50 W/m2
07:14 23.0 °C 19.0 °C 1014.1 hPa NNE 15 km/h 20 km/h 78% 0.00 mm 50.62 W/m2
07:19 24.0 °C 20.0 °C 1014.1 hPa NNE 13 km/h 20 km/h 78% 0.00 mm 57.05 W/m2
07:24 24.0 °C 19.0 °C 1014.1 hPa NNE 12 km/h 12 km/h 77% 0.00 mm 60.96 W/m2
07:29 24.0 °C 20.0 °C 1014.1 hPa North 12 km/h 16 km/h 77% 0.00 mm 64.58 W/m2
07:34 24.0 °C 20.0 °C 1014.1 hPa North 19 km/h 24 km/h 75% 0.00 mm 67.56 W/m2
07:39 24.0 °C 20.0 °C 1014.1 hPa North 18 km/h 20 km/h 75% 0.00 mm 73.23 W/m2
07:44 24.0 °C 20.0 °C 1014.2 hPa North 21 km/h 24 km/h 75% 0.00 mm 81.86 W/m2
07:49 25.0 °C 20.0 °C 1014.4 hPa North 15 km/h 24 km/h 75% 0.00 mm 89.06 W/m2
07:54 25.0 °C 20.0 °C 1014.4 hPa North 13 km/h 16 km/h 74% 0.00 mm 97.50 W/m2
07:59 25.0 °C 20.0 °C 1014.6 hPa North 17 km/h 20 km/h 74% 0.00 mm 106.01 W/m2
08:04 25.0 °C 20.0 °C 1014.7 hPa North 21 km/h 24 km/h 75% 0.00 mm 108.56 W/m2
08:09 25.0 °C 20.0 °C 1014.7 hPa NNE 14 km/h 16 km/h 75% 0.00 mm 98.75 W/m2
08:14 25.0 °C 20.0 °C 1014.7 hPa NNE 15 km/h 20 km/h 74% 0.00 mm 124.29 W/m2
08:19 25.0 °C 20.0 °C 1014.7 hPa NNE 13 km/h 20 km/h 75% 0.00 mm 133.39 W/m2
08:24 26.0 °C 21.0 °C 1014.7 hPa North 16 km/h 20 km/h 74% 0.00 mm 213.86 W/m2
08:29 26.0 °C 20.0 °C 1014.8 hPa North 19 km/h 24 km/h 74% 0.00 mm 205.25 W/m2
08:34 26.0 °C 21.0 °C 1014.9 hPa North 18 km/h 24 km/h 74% 0.00 mm 147.21 W/m2
08:39 25.0 °C 21.0 °C 1014.7 hPa North 16 km/h 20 km/h 74% 0.00 mm 209.41 W/m2
08:44 26.0 °C 21.0 °C 1015.0 hPa North 17 km/h 20 km/h 74% 0.00 mm 213.84 W/m2
08:49 26.0 °C 21.0 °C 1015.0 hPa NNE 14 km/h 20 km/h 73% 0.00 mm 213.96 W/m2
08:54 26.0 °C 21.0 °C 1015.0 hPa North 13 km/h 20 km/h 71% 0.00 mm 211.88 W/m2
08:59 26.0 °C 21.0 °C 1015.0 hPa North 19 km/h 20 km/h 72% 0.00 mm 216.63 W/m2
09:04 27.0 °C 21.0 °C 1015.0 hPa NNE 15 km/h 20 km/h 71% 0.00 mm 230.67 W/m2
09:09 27.0 °C 21.0 °C 1015.0 hPa NNE 18 km/h 24 km/h 70% 0.00 mm 237.62 W/m2
09:14 27.0 °C 21.0 °C 1015.0 hPa NNE 18 km/h 24 km/h 70% 0.00 mm 244.18 W/m2
09:19 28.0 °C 21.0 °C 1015.0 hPa North 18 km/h 24 km/h 69% 0.00 mm 256.39 W/m2
09:24 28.0 °C 21.0 °C 1015.0 hPa North 21 km/h 28 km/h 69% 0.00 mm 267.42 W/m2
09:29 28.0 °C 21.0 °C 1014.7 hPa North 20 km/h 24 km/h 69% 0.00 mm 276.94 W/m2
09:34 28.0 °C 22.0 °C 1014.7 hPa North 15 km/h 20 km/h 68% 0.00 mm 282.69 W/m2
09:39 28.0 °C 21.0 °C 1014.8 hPa NNE 17 km/h 24 km/h 69% 0.00 mm 299.84 W/m2
09:44 28.0 °C 22.0 °C 1014.7 hPa North 16 km/h 20 km/h 67% 0.00 mm 306.15 W/m2
09:49 28.0 °C 22.0 °C 1014.7 hPa NNE 18 km/h 20 km/h 68% 0.00 mm 322.91 W/m2
09:53 29.0 °C 22.0 °C 1014.6 hPa North 16 km/h 28 km/h 66% 0.00 mm 347.45 W/m2
09:59 28.0 °C 21.0 °C 1014.6 hPa NNE 21 km/h 24 km/h 67% 0.00 mm 354.04 W/m2
10:04 29.0 °C 22.0 °C 1014.3 hPa NNE 17 km/h 20 km/h 67% 0.00 mm 377.97 W/m2
10:09 29.0 °C 22.0 °C 1014.3 hPa NE 15 km/h 20 km/h 65% 0.00 mm 389.61 W/m2
10:14 29.0 °C 21.0 °C 1014.2 hPa NNE 18 km/h 24 km/h 66% 0.00 mm 383.79 W/m2
10:19 30.0 °C 22.0 °C 1014.2 hPa NE 12 km/h 16 km/h 65% 0.00 mm 427.54 W/m2
10:24 30.0 °C 22.0 °C 1014.2 hPa NNE 18 km/h 24 km/h 64% 0.00 mm 409.04 W/m2
10:29 29.0 °C 21.0 °C 1014.2 hPa North 18 km/h 24 km/h 65% 0.00 mm 171.61 W/m2
10:34 29.0 °C 22.0 °C 1014.2 hPa NNE 11 km/h 20 km/h 65% 0.00 mm 174.40 W/m2
10:39 29.0 °C 22.0 °C 1013.9 hPa North 15 km/h 20 km/h 65% 0.00 mm 352.30 W/m2
10:44 29.0 °C 21.0 °C 1013.9 hPa North 18 km/h 24 km/h 65% 0.00 mm 182.20 W/m2
10:49 29.0 °C 21.0 °C 1013.6 hPa North 13 km/h 16 km/h 65% 0.00 mm 347.70 W/m2
10:54 29.0 °C 21.0 °C 1013.6 hPa North 11 km/h 16 km/h 64% 0.00 mm 161.75 W/m2
10:59 29.0 °C 22.0 °C 1013.6 hPa NNE 19 km/h 20 km/h 65% 0.00 mm 196.86 W/m2
11:04 29.0 °C 22.0 °C 1013.6 hPa North 13 km/h 16 km/h 64% 0.00 mm 414.67 W/m2
11:09 29.0 °C 22.0 °C 1013.6 hPa North 20 km/h 24 km/h 65% 0.00 mm 174.40 W/m2
11:14 29.0 °C 22.0 °C 1013.2 hPa North 19 km/h 20 km/h 65% 0.00 mm 341.04 W/m2
11:19 30.0 °C 22.0 °C 1013.2 hPa North 19 km/h 24 km/h 65% 0.00 mm 457.04 W/m2
11:24 30.0 °C 22.0 °C 1013.2 hPa NNE 19 km/h 20 km/h 64% 0.00 mm 450.00 W/m2
11:29 30.0 °C 22.0 °C 1012.9 hPa North 18 km/h 24 km/h 64% 0.00 mm 463.89 W/m2
11:34 30.0 °C 22.0 °C 1012.9 hPa North 18 km/h 28 km/h 64% 0.00 mm 444.30 W/m2
11:39 30.0 °C 22.0 °C 1012.9 hPa North 22 km/h 24 km/h 64% 0.00 mm 417.11 W/m2
11:44 30.0 °C 22.0 °C 1012.9 hPa North 22 km/h 28 km/h 64% 0.00 mm 420.88 W/m2
11:49 30.0 °C 22.0 °C 1012.5 hPa North 26 km/h 32 km/h 62% 0.00 mm 421.96 W/m2
11:54 31.0 °C 22.0 °C 1012.5 hPa North 17 km/h 28 km/h 61% 0.00 mm 439.55 W/m2
11:59 31.0 °C 22.0 °C 1012.5 hPa NNE 19 km/h 24 km/h 60% 0.00 mm 464.21 W/m2
12:04 31.0 °C 22.0 °C 1012.5 hPa NE 13 km/h 16 km/h 61% 0.00 mm 486.38 W/m2
12:09 31.0 °C 22.0 °C 1012.2 hPa North 18 km/h 20 km/h 62% 0.00 mm 486.87 W/m2
12:14 31.0 °C 22.0 °C 1012.2 hPa NNE 21 km/h 28 km/h 62% 0.00 mm 462.28 W/m2
12:19 31.0 °C 23.0 °C 1011.9 hPa North 23 km/h 28 km/h 63% 0.00 mm 466.73 W/m2
12:24 31.0 °C 23.0 °C 1011.9 hPa NNE 22 km/h 36 km/h 63% 0.00 mm 451.39 W/m2
12:29 31.0 °C 23.0 °C 1011.9 hPa North 28 km/h 36 km/h 66% 0.00 mm 448.99 W/m2
12:34 30.0 °C 23.0 °C 1011.9 hPa North 32 km/h 40 km/h 65% 0.00 mm 452.32 W/m2
12:39 30.0 °C 23.0 °C 1011.9 hPa NNE 22 km/h 32 km/h 64% 0.00 mm 477.45 W/m2
12:44 31.0 °C 23.0 °C 1011.5 hPa NNE 23 km/h 32 km/h 63% 0.00 mm 533.48 W/m2
12:49 30.0 °C 23.0 °C 1011.5 hPa NNE 25 km/h 28 km/h 65% 0.00 mm 378.92 W/m2
12:54 31.0 °C 23.0 °C 1011.5 hPa North 14 km/h 20 km/h 64% 0.00 mm 561.20 W/m2
12:59 31.0 °C 23.0 °C 1011.5 hPa NNE 26 km/h 32 km/h 64% 0.00 mm 548.33 W/m2
13:04 30.0 °C 23.0 °C 1011.5 hPa North 29 km/h 36 km/h 64% 0.00 mm 526.15 W/m2
13:09 31.0 °C 23.0 °C 1011.2 hPa North 22 km/h 28 km/h 63% 0.00 mm 447.39 W/m2
13:14 31.0 °C 23.0 °C 1010.8 hPa NNE 18 km/h 20 km/h 63% 0.00 mm 424.70 W/m2
13:19 31.0 °C 23.0 °C 1010.8 hPa NNE 22 km/h 24 km/h 63% 0.00 mm 427.81 W/m2
13:24 30.0 °C 23.0 °C 1010.8 hPa North 23 km/h 28 km/h 64% 0.00 mm 426.95 W/m2
13:29 31.0 °C 23.0 °C 1010.8 hPa NNE 21 km/h 24 km/h 64% 0.00 mm 452.98 W/m2
13:34 31.0 °C 23.0 °C 1010.8 hPa NNW 16 km/h 20 km/h 63% 0.00 mm 475.42 W/m2
13:39 31.0 °C 23.0 °C 1010.8 hPa North 27 km/h 28 km/h 63% 0.00 mm 168.33 W/m2
13:44 31.0 °C 23.0 °C 1010.5 hPa North 25 km/h 32 km/h 64% 0.00 mm 162.85 W/m2
13:49 30.0 °C 23.0 °C 1010.5 hPa NNE 26 km/h 28 km/h 64% 0.00 mm 143.90 W/m2
13:54 30.0 °C 23.0 °C 1010.5 hPa NNE 15 km/h 20 km/h 64% 0.00 mm 129.92 W/m2
13:59 30.0 °C 23.0 °C 1010.5 hPa NE 14 km/h 24 km/h 64% 0.00 mm 126.22 W/m2
14:04 30.0 °C 23.0 °C 1010.5 hPa ESE 24 km/h 28 km/h 64% 0.00 mm 136.87 W/m2
14:09 30.0 °C 23.0 °C 1010.2 hPa NNE 16 km/h 20 km/h 64% 0.00 mm 453.06 W/m2
14:14 31.0 °C 23.0 °C 1010.2 hPa North 19 km/h 24 km/h 63% 0.00 mm 513.46 W/m2
14:19 31.0 °C 23.0 °C 1010.2 hPa NNE 16 km/h 20 km/h 62% 0.00 mm 372.97 W/m2
14:24 31.0 °C 23.0 °C 1009.8 hPa NE 18 km/h 20 km/h 62% 0.00 mm 281.91 W/m2
14:29 31.0 °C 23.0 °C 1009.8 hPa NE 18 km/h 20 km/h 63% 0.00 mm 160.68 W/m2
14:34 31.0 °C 23.0 °C 1009.8 hPa NE 7 km/h 8 km/h 63% 0.00 mm 126.47 W/m2
14:39 31.0 °C 23.0 °C 1009.8 hPa NE 6 km/h 12 km/h 63% 0.00 mm 105.50 W/m2
14:44 31.0 °C 23.0 °C 1009.8 hPa ENE 6 km/h 8 km/h 63% 0.00 mm 140.90 W/m2
14:49 30.0 °C 23.0 °C 1009.8 hPa NNE 15 km/h 16 km/h 63% 0.00 mm 485.18 W/m2
14:54 31.0 °C 23.0 °C 1009.8 hPa NNE 14 km/h 16 km/h 63% 0.00 mm 339.00 W/m2
14:59 31.0 °C 23.0 °C 1009.8 hPa NNE 15 km/h 16 km/h 62% 0.00 mm 199.63 W/m2
15:04 31.0 °C 23.0 °C 1009.8 hPa East 6 km/h 8 km/h 61% 0.00 mm 337.10 W/m2
15:09 31.0 °C 23.0 °C 1009.8 hPa NNE 4 km/h 8 km/h 61% 0.00 mm 154.24 W/m2
15:14 31.0 °C 23.0 °C 1009.8 hPa ENE 8 km/h 12 km/h 61% 0.00 mm 150.62 W/m2
15:19 31.0 °C 22.0 °C 1009.8 hPa NNE 15 km/h 20 km/h 61% 0.00 mm 248.90 W/m2
15:24 31.0 °C 22.0 °C 1009.8 hPa North 12 km/h 16 km/h 62% 0.00 mm 257.76 W/m2
15:29 31.0 °C 22.0 °C 1009.8 hPa NE 14 km/h 16 km/h 61% 0.00 mm 335.64 W/m2
15:34 31.0 °C 22.0 °C 1009.8 hPa NNE 13 km/h 16 km/h 61% 0.00 mm 124.00 W/m2
15:39 31.0 °C 22.0 °C 1009.8 hPa NE 15 km/h 20 km/h 62% 0.00 mm 138.21 W/m2
15:44 31.0 °C 22.0 °C 1009.8 hPa NNE 9 km/h 16 km/h 62% 0.00 mm 108.51 W/m2
15:49 31.0 °C 22.0 °C 1009.8 hPa NNE 14 km/h 16 km/h 63% 0.00 mm 101.09 W/m2
15:54 31.0 °C 23.0 °C 1009.8 hPa ENE 18 km/h 20 km/h 63% 0.00 mm 79.66 W/m2
15:59 30.0 °C 23.0 °C 1009.8 hPa NE 10 km/h 20 km/h 63% 0.00 mm 97.30 W/m2
16:04 30.0 °C 23.0 °C 1010.2 hPa NE 13 km/h 20 km/h 63% 0.00 mm 113.16 W/m2
16:09 30.0 °C 22.0 °C 1010.2 hPa NNE 19 km/h 24 km/h 64% 0.00 mm 116.75 W/m2
16:14 30.0 °C 22.0 °C 1010.2 hPa NNE 12 km/h 16 km/h 64% 0.00 mm 116.36 W/m2
16:19 30.0 °C 22.0 °C 1010.2 hPa NNE 15 km/h 20 km/h 64% 0.00 mm 79.81 W/m2
16:24 30.0 °C 22.0 °C 1010.2 hPa NNE 20 km/h 28 km/h 64% 0.00 mm 83.26 W/m2
16:29 30.0 °C 22.0 °C 1010.2 hPa NNE 16 km/h 28 km/h 65% 0.00 mm 92.63 W/m2
16:34 30.0 °C 22.0 °C 1010.2 hPa NNE 17 km/h 20 km/h 65% 0.00 mm 93.09 W/m2
16:39 30.0 °C 22.0 °C 1010.2 hPa NNE 9 km/h 16 km/h 64% 0.00 mm 80.91 W/m2
16:44 30.0 °C 22.0 °C 1010.5 hPa NNE 17 km/h 20 km/h 64% 0.00 mm 87.05 W/m2
16:49 30.0 °C 22.0 °C 1010.5 hPa NNE 16 km/h 20 km/h 64% 0.00 mm 82.84 W/m2
16:54 30.0 °C 22.0 °C 1010.5 hPa NNE 17 km/h 20 km/h 64% 0.00 mm 75.86 W/m2
16:59 30.0 °C 22.0 °C 1010.5 hPa NE 13 km/h 20 km/h 64% 0.00 mm 57.20 W/m2
17:04 30.0 °C 22.0 °C 1010.5 hPa NNE 13 km/h 16 km/h 65% 0.00 mm 37.78 W/m2
17:09 30.0 °C 22.0 °C 1010.8 hPa NNE 23 km/h 28 km/h 65% 0.00 mm 33.84 W/m2
17:14 29.0 °C 22.0 °C 1010.8 hPa NNE 23 km/h 28 km/h 65% 0.00 mm 33.34 W/m2
17:19 29.0 °C 22.0 °C 1010.8 hPa NNE 18 km/h 24 km/h 66% 0.00 mm 34.24 W/m2
17:24 29.0 °C 22.0 °C 1010.8 hPa NNE 15 km/h 20 km/h 66% 0.00 mm 34.45 W/m2
17:29 29.0 °C 22.0 °C 1010.8 hPa NNE 15 km/h 24 km/h 66% 0.00 mm 33.98 W/m2
17:34 29.0 °C 22.0 °C 1010.8 hPa NE 10 km/h 16 km/h 66% 0.00 mm 29.38 W/m2
17:39 29.0 °C 22.0 °C 1010.8 hPa North 8 km/h 12 km/h 66% 0.00 mm 25.58 W/m2
17:44 29.0 °C 22.0 °C 1010.8 hPa NE 12 km/h 16 km/h 66% 0.00 mm 18.98 W/m2
17:49 29.0 °C 22.0 °C 1010.8 hPa NE 12 km/h 16 km/h 67% 0.00 mm 9.37 W/m2
17:54 29.0 °C 22.0 °C 1010.8 hPa NE 9 km/h 12 km/h 67% 0.00 mm 5.36 W/m2
17:59 29.0 °C 22.0 °C 1010.8 hPa NE 9 km/h 12 km/h 67% 0.00 mm 1.02 W/m2
18:04 29.0 °C 22.0 °C 1011.2 hPa NE 10 km/h 12 km/h 67% 0.00 mm 0.00 W/m2
18:09 29.0 °C 22.0 °C 1011.2 hPa ENE 8 km/h 8 km/h 67% 0.00 mm 0.00 W/m2
18:14 29.0 °C 22.0 °C 1011.2 hPa NNE 10 km/h 16 km/h 67% 0.00 mm 0.00 W/m2
18:19 29.0 °C 22.0 °C 1011.5 hPa NE 5 km/h 8 km/h 68% 0.00 mm 0.00 W/m2
18:24 29.0 °C 22.0 °C 1011.2 hPa NNE 13 km/h 16 km/h 68% 0.00 mm 0.00 W/m2
18:29 28.0 °C 22.0 °C 1011.5 hPa NNE 9 km/h 12 km/h 68% 0.00 mm 0.00 W/m2
18:34 28.0 °C 22.0 °C 1011.5 hPa NE 4 km/h 8 km/h 68% 0.00 mm 0.00 W/m2
18:39 28.0 °C 22.0 °C 1011.5 hPa NE 5 km/h 8 km/h 68% 0.00 mm 0.00 W/m2
18:44 28.0 °C 22.0 °C 1011.5 hPa NNE 7 km/h 8 km/h 68% 0.00 mm 0.00 W/m2
18:49 28.0 °C 22.0 °C 1011.5 hPa NNE 6 km/h 8 km/h 69% 0.00 mm 0.00 W/m2
18:54 28.0 °C 22.0 °C 1011.5 hPa NNE 15 km/h 20 km/h 69% 0.00 mm 0.00 W/m2
18:59 28.0 °C 22.0 °C 1011.5 hPa NE 10 km/h 16 km/h 70% 0.00 mm 0.00 W/m2
19:04 28.0 °C 22.0 °C 1011.5 hPa NE 17 km/h 20 km/h 70% 0.00 mm 0.00 W/m2
19:09 28.0 °C 22.0 °C 1011.5 hPa NE 9 km/h 12 km/h 70% 0.00 mm 0.00 W/m2
19:14 28.0 °C 22.0 °C 1011.9 hPa East 4 km/h 4 km/h 70% 0.00 mm 0.00 W/m2
19:19 28.0 °C 22.0 °C 1011.9 hPa NE 4 km/h 8 km/h 71% 0.00 mm 0.00 W/m2
19:24 28.0 °C 22.0 °C 1011.9 hPa NE 5 km/h 8 km/h 71% 0.00 mm 0.00 W/m2
19:29 28.0 °C 22.0 °C 1011.9 hPa NE 4 km/h 4 km/h 71% 0.00 mm 0.00 W/m2
19:34 28.0 °C 22.0 °C 1011.9 hPa ENE 3 km/h 4 km/h 72% 0.00 mm 0.00 W/m2
19:39 28.0 °C 22.0 °C 1011.9 hPa NNE 8 km/h 8 km/h 71% 0.00 mm 0.00 W/m2
19:44 28.0 °C 22.0 °C 1012.2 hPa NNE 5 km/h 8 km/h 71% 0.00 mm 0.00 W/m2
19:49 28.0 °C 22.0 °C 1012.2 hPa NNE 9 km/h 12 km/h 71% 0.00 mm 0.00 W/m2
19:54 28.0 °C 22.0 °C 1012.2 hPa ENE 9 km/h 12 km/h 72% 0.00 mm 0.00 W/m2
19:59 28.0 °C 22.0 °C 1012.2 hPa ENE 3 km/h 4 km/h 72% 0.00 mm 0.00 W/m2
20:04 28.0 °C 22.0 °C 1012.5 hPa South 3 km/h 4 km/h 72% 0.00 mm 0.00 W/m2
20:09 28.0 °C 22.0 °C 1012.5 hPa NE 3 km/h 4 km/h 72% 0.00 mm 0.00 W/m2
20:14 28.0 °C 22.0 °C 1012.5 hPa NE 4 km/h 4 km/h 72% 0.00 mm 0.00 W/m2
20:19 28.0 °C 22.0 °C 1012.5 hPa NNE 6 km/h 12 km/h 72% 0.00 mm 0.00 W/m2
20:24 28.0 °C 22.0 °C 1012.5 hPa East 4 km/h 4 km/h 73% 0.00 mm 0.00 W/m2
20:29 28.0 °C 22.0 °C 1012.5 hPa Calm   4 km/h 73% 0.00 mm 0.00 W/m2
20:34 28.0 °C 22.0 °C 1012.5 hPa NE 9 km/h 12 km/h 73% 0.00 mm 0.00 W/m2
20:39 28.0 °C 22.0 °C 1012.5 hPa NNE 3 km/h 4 km/h 73% 0.00 mm 0.00 W/m2
20:44 27.0 °C 22.0 °C 1012.5 hPa North 3 km/h 4 km/h 73% 0.00 mm 0.00 W/m2
20:49 27.0 °C 22.0 °C 1012.5 hPa NNW 5 km/h 8 km/h 73% 0.00 mm 0.00 W/m2
20:54 27.0 °C 22.0 °C 1012.5 hPa NW 5 km/h 8 km/h 73% 0.00 mm 0.00 W/m2
20:59 27.0 °C 22.0 °C 1012.5 hPa NW 5 km/h 8 km/h 74% 0.00 mm 0.00 W/m2
21:04 27.0 °C 22.0 °C 1012.5 hPa Calm     74% 0.00 mm 0.00 W/m2
21:09 27.0 °C 22.0 °C 1012.9 hPa North 5 km/h 8 km/h 74% 0.00 mm 0.00 W/m2
21:14 27.0 °C 22.0 °C 1012.5 hPa NW 5 km/h 8 km/h 74% 0.00 mm 0.00 W/m2
21:19 27.0 °C 22.0 °C 1012.5 hPa North 4 km/h 4 km/h 75% 0.00 mm 0.00 W/m2
21:24 27.0 °C 22.0 °C 1012.9 hPa NNW 4 km/h 4 km/h 75% 0.00 mm 0.00 W/m2
21:29 27.0 °C 22.0 °C 1012.9 hPa North 6 km/h 8 km/h 75% 0.00 mm 0.00 W/m2
21:34 27.0 °C 22.0 °C 1012.9 hPa North 5 km/h 8 km/h 75% 0.00 mm 0.00 W/m2
21:39 27.0 °C 22.0 °C 1012.9 hPa North 3 km/h 4 km/h 76% 0.00 mm 0.00 W/m2
21:44 27.0 °C 22.0 °C 1012.9 hPa NW 3 km/h 4 km/h 76% 0.00 mm 0.00 W/m2
21:49 27.0 °C 22.0 °C 1012.9 hPa North 4 km/h 4 km/h 76% 0.00 mm 0.00 W/m2
21:54 27.0 °C 22.0 °C 1013.2 hPa NNW 3 km/h 4 km/h 76% 0.00 mm 0.00 W/m2
21:59 27.0 °C 23.0 °C 1013.2 hPa Calm     77% 0.00 mm 0.00 W/m2
22:04 27.0 °C 23.0 °C 1013.2 hPa SSE 3 km/h 4 km/h 77% 0.00 mm 0.00 W/m2
22:09 27.0 °C 23.0 °C 1013.2 hPa Calm   4 km/h 78% 0.00 mm 0.00 W/m2
22:14 27.0 °C 23.0 °C 1013.2 hPa SSE 4 km/h 4 km/h 78% 0.00 mm 0.00 W/m2
22:19 27.0 °C 23.0 °C 1013.2 hPa SSE 3 km/h 4 km/h 78% 0.00 mm 0.00 W/m2
22:24 27.0 °C 23.0 °C 1013.2 hPa Calm     78% 0.00 mm 0.00 W/m2
22:29 27.0 °C 23.0 °C 1013.2 hPa Calm     79% 0.00 mm 0.00 W/m2
22:34 27.0 °C 23.0 °C 1013.2 hPa Calm     79% 0.00 mm 0.00 W/m2
22:39 26.0 °C 23.0 °C 1013.2 hPa NW 6 km/h 8 km/h 79% 0.00 mm 0.00 W/m2
22:44 27.0 °C 23.0 °C 1013.2 hPa NW 5 km/h 8 km/h 78% 0.00 mm 0.00 W/m2
22:49 27.0 °C 23.0 °C 1013.2 hPa NW 1 km/h 4 km/h 78% 0.00 mm 0.00 W/m2
22:54 27.0 °C 22.0 °C 1013.2 hPa North 5 km/h 12 km/h 77% 0.00 mm 0.00 W/m2
22:59 27.0 °C 22.0 °C 1013.2 hPa NW 3 km/h 4 km/h 77% 0.00 mm 0.00 W/m2
23:04 27.0 °C 22.0 °C 1013.2 hPa NNW 5 km/h 8 km/h 77% 0.00 mm 0.00 W/m2
23:09 27.0 °C 22.0 °C 1013.2 hPa North 5 km/h 8 km/h 78% 0.00 mm 0.00 W/m2
23:14 27.0 °C 23.0 °C 1013.2 hPa NNW 4 km/h 4 km/h 78% 0.00 mm 0.00 W/m2
23:19 27.0 °C 23.0 °C 1013.2 hPa NNW 5 km/h 8 km/h 78% 0.00 mm 0.00 W/m2
23:24 26.0 °C 22.0 °C 1013.2 hPa North 3 km/h 4 km/h 78% 0.00 mm 0.00 W/m2
23:29 26.0 °C 22.0 °C 1013.2 hPa Calm     78% 0.00 mm 0.00 W/m2
23:34 26.0 °C 22.0 °C 1013.2 hPa Calm     78% 0.00 mm 0.00 W/m2
23:39 26.0 °C 22.0 °C 1013.2 hPa North 3 km/h 4 km/h 78% 0.00 mm 0.00 W/m2
23:44 26.0 °C 22.0 °C 1013.2 hPa North 6 km/h 8 km/h 78% 0.00 mm 0.00 W/m2
23:49 27.0 °C 23.0 °C 1013.2 hPa NNW 6 km/h 8 km/h 78% 0.00 mm 0.00 W/m2
23:54 27.0 °C 23.0 °C 1013.2 hPa North 5 km/h 8 km/h 78% 0.00 mm 0.00 W/m2
23:59 27.0 °C 23.0 °C 1012.9 hPa NNE 8 km/h 8 km/h 78% 0.00 mm 0.00 W/m2
PIMOHWEATHER Philippines
Compliments of Weather Underground - 2 mb